Weather History for Havre, MT

Change the Weather History Date:

Saturday, November 24, 2012

  Actual Average Record
Temperature  
Mean Temperature 33 °F 26 °F  
Max Temperature 41 °F 37 °F 64 °F (1914)
Min Temperature 25 °F 15 °F -25 °F (1880)
Degree Days  
Heating Degree Days 32 39  
Month to date heating degree days 807 802  
Since 1 July heating degree days 1734 1801  
Cooling Degree Days 0 0  
Month to date cooling degree days 0 0  
Year to date cooling degree days 507 387  
Moisture  
Dew Point 28 °F    
Average Humidity 83    
Maximum Humidity 100    
Minimum Humidity 65    
Precipitation  
Precipitation T in 0.01 in 1.04 in (1883)
Month to date precipitation 0.83 0.35  
Year to date precipitation 12.32 10.72  
Snow  
Snow T in 0.20 in 7.00 in (1958)
Month to date snowfall 14.5 4.0  
Since 1 July snowfall 16.0 6.3  
Since 1 September snowfall 16.0 6.3  
Snow Depth T in    
Sea Level Pressure  
Sea Level Pressure 30.03 in    
Wind  
Wind Speed 6 mph (WSW)    
Max Wind Speed 16 mph    
Max Gust Speed 18 mph    
Visibility 6 miles    
Events Fog , Rain , Snow    
T = Trace of Precipitation, MM = Missing Value Source: NWS Daily Summary

Daily Weather History Graph

Daily Weather History Graph

Search for Another Location

Airport:

Trip Planner

Search our weather history database for the weather conditions in past years. The results will help you decide how hot, cold, wet, or windy it might be!

Date:

Astronomy

Nov. 24, 2012 Rise Set
Actual Time 7:41 AM MST 4:30 PM MST
Civil Twilight 7:05 AM MST 5:05 PM MST
Nautical Twilight 6:26 AM MST 5:44 PM MST
Astronomical Twilight 5:49 AM MST 6:21 PM MST
Moon 2:28 PM MST (11/24) 3:47 AM MST (11/24)
Length of Visible Light 9h 59m
Length of Day
8h 48m
Waxing Gibbous, 87% of the Moon is Illuminated
Nov 24
Waxing Gibbous
Nov 28
Full
Dec 6
Last Quarter
Dec 13
New
Dec 19
First Quarter

Hourly Weather History & Observations

Time (MST) Temp. Windchill Dew Point Humidity Pressure Visibility Wind Dir Wind Speed Gust Speed Precip Events Conditions
12:53 AM 37.9 °F 33.5 °F 30.0 °F 73% 29.94 in 10.0 mi WNW 5.8 mph - N/A   Overcast
1:53 AM 37.9 °F 32.7 °F 30.9 °F 76% 29.95 in 10.0 mi WNW 6.9 mph - N/A   Overcast
2:53 AM 37.0 °F 31.6 °F 30.9 °F 79% 29.94 in 10.0 mi SSW 6.9 mph - N/A   Overcast
3:53 AM 39.0 °F 32.8 °F 32.0 °F 76% 29.94 in 10.0 mi SW 9.2 mph - 0.00 in Rain Light Rain
4:53 AM 39.9 °F 32.1 °F 33.1 °F 77% 29.93 in 10.0 mi SW 13.8 mph - 0.00 in   Overcast
5:53 AM 41.0 °F 34.7 °F 33.1 °F 73% 29.94 in 10.0 mi WSW 10.4 mph - N/A   Overcast
6:53 AM 37.0 °F 31.6 °F 32.0 °F 82% 29.96 in 10.0 mi SW 6.9 mph - N/A   Scattered Clouds
7:53 AM 37.0 °F 33.3 °F 32.0 °F 82% 29.97 in 10.0 mi West 4.6 mph - N/A   Overcast
8:53 AM 36.0 °F 32.1 °F 30.9 °F 82% 29.99 in 10.0 mi WSW 4.6 mph - N/A   Overcast
9:53 AM 34.0 °F 26.0 °F 28.0 °F 79% 30.03 in 10.0 mi NW 10.4 mph - N/A   Overcast
10:53 AM 32.0 °F 27.5 °F 27.0 °F 82% 30.05 in 4.0 mi West 4.6 mph - 0.00 in Snow Light Snow
11:53 AM 32.0 °F 26.4 °F 27.0 °F 82% 30.04 in 10.0 mi West 5.8 mph - 0.00 in   Overcast
12:53 PM 32.0 °F 24.8 °F 28.0 °F 85% 30.07 in 4.0 mi SW 8.1 mph - 0.00 in Snow Light Snow
1:11 PM 32.0 °F 27.5 °F 28.4 °F 87% 30.00 in 2.0 mi WSW 4.6 mph - 0.00 in Snow Light Snow
1:18 PM 32.0 °F 28.7 °F 28.4 °F 87% 29.99 in 1.5 mi West 3.5 mph - 0.00 in Snow Light Snow
1:26 PM 33.8 °F 28.6 °F 28.4 °F 81% 29.99 in 3.0 mi SW 5.8 mph - 0.00 in Snow Light Snow
1:53 PM 33.1 °F 27.7 °F 30.0 °F 89% 30.06 in 10.0 mi SW 5.8 mph - 0.00 in   Overcast
2:53 PM 33.1 °F 26.9 °F 30.0 °F 89% 30.08 in 10.0 mi WSW 6.9 mph - N/A   Scattered Clouds
3:53 PM 32.0 °F 26.4 °F 28.9 °F 88% 30.09 in 10.0 mi SW 5.8 mph - N/A   Clear
4:53 PM 28.9 °F 22.8 °F 27.0 °F 92% 30.10 in 8.0 mi SSW 5.8 mph - N/A   Partly Cloudy
5:53 PM 30.0 °F 25.2 °F 28.9 °F 96% 30.10 in 10.0 mi South 4.6 mph - N/A   Overcast
6:53 PM 28.9 °F 23.9 °F 27.0 °F 92% 30.11 in 9.0 mi SW 4.6 mph - N/A   Overcast
7:14 PM 28.4 °F 22.2 °F 26.6 °F 93% 30.03 in 9.0 mi WSW 5.8 mph - N/A   Mostly Cloudy
7:35 PM 28.4 °F 20.4 °F 26.6 °F 93% 30.03 in 9.0 mi SW 8.1 mph - N/A   Mostly Cloudy
7:53 PM 30.9 °F 23.5 °F 28.9 °F 92% 30.10 in 9.0 mi SW 8.1 mph - N/A   Overcast
8:53 PM 28.9 °F 23.9 °F 28.0 °F 96% 30.10 in 10.0 mi SW 4.6 mph - N/A   Mostly Cloudy
9:00 PM 28.4 °F 24.6 °F 26.6 °F 93% 30.02 in 10.0 mi West 3.5 mph - N/A   Scattered Clouds
9:20 PM 26.6 °F 22.6 °F 24.8 °F 93% 30.02 in 1.5 mi West 3.5 mph - N/A   Scattered Clouds
9:22 PM 26.6 °F 22.6 °F 24.8 °F 93% 30.02 in 0.8 mi West 3.5 mph - N/A   Mist
9:34 PM 26.6 °F 21.2 °F 24.8 °F 93% 30.01 in 0.2 mi West 4.6 mph - N/A Fog Light Freezing Fog
9:53 PM 26.1 °F 21.9 °F 25.0 °F 96% 30.10 in 0.5 mi WNW 3.5 mph - N/A Fog Light Freezing Fog
10:08 PM 26.6 °F 21.2 °F 26.6 °F 100% 30.01 in 0.2 mi NW 4.6 mph - N/A Fog Light Freezing Fog
10:53 PM 26.1 °F 19.4 °F 25.0 °F 96% 30.09 in 0.5 mi West 5.8 mph - N/A Fog Light Freezing Fog
11:31 PM 24.8 °F 20.5 °F 24.8 °F 100% 30.00 in 1.0 mi West 3.5 mph - N/A   Mist
11:38 PM 24.8 °F - 24.8 °F 100% 30.00 in 0.8 mi Calm Calm - N/A   Mist
11:49 PM 24.8 °F - 23.0 °F 93% 30.00 in 1.0 mi Calm Calm - N/A   Mist
11:53 PM 25.0 °F - 23.0 °F 92% 30.09 in 1.0 mi Calm Calm - N/A   Mist
11:57 PM 24.8 °F - 23.0 °F 93% 30.00 in 0.8 mi Calm Calm - N/A   Mist